Time,TemperatureF,DewpointF,PressureIn,WindDirection,WindDirectionDegrees,WindSpeedMPH,WindSpeedGustMPH,Humidity,HourlyPrecipIn,Conditions,Clouds,dailyrainin,SoftwareType,DateUTC
2013-03-01 00:00:00,43.8,20.5,30.30,SW,225,0.0,0.0,39,0.00,,---,1.25,VWS V14.01,2013-03-01 06:00:00,
2013-03-01 00:01:00,34.3,17.6,30.27,NNE,22,0.0,0.0,50,0.00,,---,0.00,VWS V14.01,2013-03-01 06:01:00,
2013-03-01 00:06:00,34.3,17.6,30.24,North,0,0.0,0.0,50,0.00,,---,0.00,VWS V14.01,2013-03-01 06:06:00,
2013-03-01 00:11:00,34.8,18.5,30.24,NNW,338,0.0,0.0,51,0.00,,---,0.00,VWS V14.01,2013-03-01 06:11:00,
2013-03-01 00:12:00,34.3,17.6,30.27,NNE,22,0.0,0.0,50,0.00,,---,0.00,VWS V14.01,2013-03-01 06:12:00,
2013-03-01 00:13:00,34.3,17.6,30.27,NNE,22,0.0,0.0,50,0.00,,---,0.00,VWS V14.01,2013-03-01 06:13:00,
2013-03-01 00:14:00,34.3,17.6,30.27,NNE,22,0.0,0.0,50,0.00,,---,0.00,VWS V14.01,2013-03-01 06:14:00,
2013-03-01 00:15:00,34.3,17.6,30.27,North,0,0.0,0.0,50,0.00,,---,0.00,VWS V14.01,2013-03-01 06:15:00,
2013-03-01 00:16:00,34.6,18.4,30.24,NNW,338,1.6,2.0,51,0.00,,---,0.00,VWS V14.01,2013-03-01 06:16:00,
2013-03-01 00:17:00,34.3,17.6,30.24,North,0,0.0,0.0,50,0.00,,---,0.00,VWS V14.01,2013-03-01 06:17:00,
2013-03-01 00:18:00,34.3,17.6,30.24,North,0,0.0,0.0,50,0.00,,---,0.00,VWS V14.01,2013-03-01 06:18:00,
2013-03-01 00:19:00,34.3,17.6,30.24,North,0,0.0,0.0,50,0.00,,---,0.00,VWS V14.01,2013-03-01 06:19:00,
2013-03-01 00:20:00,34.6,17.9,30.24,NNW,338,0.0,0.0,50,0.00,,---,0.00,VWS V14.01,2013-03-01 06:20:00,
2013-03-01 00:21:00,34.5,18.7,30.24,NW,315,0.0,0.0,52,0.00,,---,0.00,VWS V14.01,2013-03-01 06:21:00,
2013-03-01 00:22:00,34.6,18.4,30.24,NNW,338,0.0,0.0,51,0.00,,---,0.00,VWS V14.01,2013-03-01 06:22:00,
2013-03-01 00:23:00,34.8,18.1,30.24,NNW,338,0.0,0.0,50,0.00,,---,0.00,VWS V14.01,2013-03-01 06:23:00,
2013-03-01 00:24:00,34.8,18.5,30.24,NNW,338,0.0,0.0,51,0.00,,---,0.00,VWS V14.01,2013-03-01 06:24:00,
2013-03-01 00:25:00,34.6,18.4,30.24,NNW,338,0.0,0.0,51,0.00,,---,0.00,VWS V14.01,2013-03-01 06:25:00,
2013-03-01 00:26:00,34.6,18.4,30.24,NNW,338,0.0,0.0,51,0.00,,---,0.00,VWS V14.01,2013-03-01 06:26:00,
2013-03-01 00:27:00,34.6,18.4,30.24,NNW,338,2.0,2.0,51,0.00,,---,0.00,VWS V14.01,2013-03-01 06:27:00,
2013-03-01 00:28:00,34.6,18.4,30.24,NNW,338,2.0,2.0,51,0.00,,---,0.00,VWS V14.01,2013-03-01 06:28:00,
2013-03-01 00:29:00,34.6,18.4,30.24,NNW,338,1.3,2.0,51,0.00,,---,0.00,VWS V14.01,2013-03-01 06:29:00,
2013-03-01 00:30:00,34.5,18.2,30.24,NNW,338,0.0,1.3,51,0.00,,---,0.00,VWS V14.01,2013-03-01 06:30:00,
2013-03-01 00:31:00,34.3,18.9,30.24,NNW,338,0.9,1.6,53,0.00,,---,0.00,VWS V14.01,2013-03-01 06:31:00,
2013-03-01 00:32:00,34.5,18.7,30.24,NW,315,0.0,0.0,52,0.00,,---,0.00,VWS V14.01,2013-03-01 06:32:00,
2013-03-01 00:33:00,34.5,18.7,30.24,NW,315,0.0,0.0,52,0.00,,---,0.00,VWS V14.01,2013-03-01 06:33:00,
2013-03-01 00:34:00,34.5,18.7,30.24,NW,315,0.0,0.0,52,0.00,,---,0.00,VWS V14.01,2013-03-01 06:34:00,
2013-03-01 00:35:00,34.3,18.5,30.24,NW,315,0.0,0.0,52,0.00,,---,0.00,VWS V14.01,2013-03-01 06:35:00,
2013-03-01 00:36:00,34.1,18.8,30.27,NNW,338,0.0,0.0,53,0.00,,---,0.00,VWS V14.01,2013-03-01 06:36:00,
2013-03-01 00:37:00,34.3,18.5,30.24,NW,315,0.0,0.0,52,0.00,,---,0.00,VWS V14.01,2013-03-01 06:37:00,
2013-03-01 00:38:00,34.3,18.5,30.24,NW,315,0.0,0.0,52,0.00,,---,0.00,VWS V14.01,2013-03-01 06:38:00,
2013-03-01 00:39:00,34.3,18.5,30.24,NW,315,0.0,0.0,52,0.00,,---,0.00,VWS V14.01,2013-03-01 06:39:00,
2013-03-01 00:40:00,34.3,18.5,30.24,NW,315,0.0,0.0,52,0.00,,---,0.00,VWS V14.01,2013-03-01 06:40:00,
2013-03-01 00:41:00,34.1,18.8,30.27,NNW,338,0.0,0.0,53,0.00,,---,0.00,VWS V14.01,2013-03-01 06:41:00,
2013-03-01 00:42:00,34.3,18.9,30.24,NNW,338,1.6,1.6,53,0.00,,---,0.00,VWS V14.01,2013-03-01 06:42:00,
2013-03-01 00:43:00,34.3,18.5,30.24,NNW,338,1.6,1.6,52,0.00,,---,0.00,VWS V14.01,2013-03-01 06:43:00,
2013-03-01 00:44:00,34.3,18.9,30.24,NNW,338,0.0,1.6,53,0.00,,---,0.00,VWS V14.01,2013-03-01 06:44:00,
2013-03-01 00:45:00,34.3,18.9,30.24,NNW,338,0.0,0.0,53,0.00,,---,0.00,VWS V14.01,2013-03-01 06:45:00,
2013-03-01 00:46:00,33.9,18.6,30.27,NNW,338,0.0,0.0,53,0.00,,---,0.00,VWS V14.01,2013-03-01 06:46:00,
2013-03-01 00:47:00,34.3,18.9,30.27,NNW,338,1.3,1.3,53,0.00,,---,0.00,VWS V14.01,2013-03-01 06:47:00,
2013-03-01 00:48:00,34.1,18.8,30.27,NNW,338,0.0,1.3,53,0.00,,---,0.00,VWS V14.01,2013-03-01 06:48:00,
2013-03-01 00:49:00,34.1,18.8,30.27,NNW,338,0.0,0.0,53,0.00,,---,0.00,VWS V14.01,2013-03-01 06:49:00,
2013-03-01 00:50:00,34.1,18.8,30.27,NNW,338,0.0,0.0,53,0.00,,---,0.00,VWS V14.01,2013-03-01 06:50:00,
2013-03-01 00:51:00,33.9,19.0,30.27,NNW,338,0.0,0.0,54,0.00,,---,0.00,VWS V14.01,2013-03-01 06:51:00,
2013-03-01 00:52:00,34.1,18.8,30.27,NNW,338,0.0,0.0,53,0.00,,---,0.00,VWS V14.01,2013-03-01 06:52:00,
2013-03-01 00:53:00,34.1,18.8,30.27,NNW,338,0.0,0.0,53,0.00,,---,0.00,VWS V14.01,2013-03-01 06:53:00,
2013-03-01 00:54:00,34.1,18.8,30.27,NNW,338,0.0,0.0,53,0.00,,---,0.00,VWS V14.01,2013-03-01 06:54:00,
2013-03-01 00:55:00,34.1,18.8,30.27,NNW,338,0.0,0.0,53,0.00,,---,0.00,VWS V14.01,2013-03-01 06:55:00,
2013-03-01 00:56:00,33.7,18.9,30.27,NNW,338,0.0,0.0,54,0.00,,---,0.00,VWS V14.01,2013-03-01 06:56:00,
2013-03-01 00:57:00,33.9,18.6,30.27,NNW,338,0.0,0.0,53,0.00,,---,0.00,VWS V14.01,2013-03-01 06:57:00,
2013-03-01 00:58:00,33.9,18.6,30.27,NNW,338,0.0,0.0,53,0.00,,---,0.00,VWS V14.01,2013-03-01 06:58:00,
2013-03-01 00:59:00,33.9,18.6,30.27,NNW,338,0.0,0.0,53,0.00,,---,0.00,VWS V14.01,2013-03-01 06:59:00,
2013-03-01 01:00:00,33.9,18.6,30.27,NNW,338,0.0,0.0,53,0.00,,---,0.00,VWS V14.01,2013-03-01 07:00:00,
2013-03-01 01:01:00,33.7,18.9,30.27,NNW,338,0.0,0.0,54,0.00,,---,0.00,VWS V14.01,2013-03-01 07:01:00,
2013-03-01 01:02:00,33.9,19.0,30.27,NNW,338,0.0,0.0,54,0.00,,---,0.00,VWS V14.01,2013-03-01 07:02:00,
2013-03-01 01:03:00,33.9,19.0,30.27,NNW,338,0.0,0.0,54,0.00,,---,0.00,VWS V14.01,2013-03-01 07:03:00,
2013-03-01 01:04:00,33.7,18.9,30.27,NNW,338,0.0,0.0,54,0.00,,---,0.00,VWS V14.01,2013-03-01 07:04:00,
2013-03-01 01:05:00,33.9,19.0,30.27,NNW,338,0.0,0.0,54,0.00,,---,0.00,VWS V14.01,2013-03-01 07:05:00,
2013-03-01 01:06:00,33.2,18.4,30.27,WNW,292,0.0,0.0,54,0.00,,---,0.00,VWS V14.01,2013-03-01 07:06:00,
2013-03-01 01:07:00,33.7,18.9,30.27,NNW,338,0.0,0.0,54,0.00,,---,0.00,VWS V14.01,2013-03-01 07:07:00,
2013-03-01 01:08:00,33.7,18.9,30.27,NNW,338,0.0,0.0,54,0.00,,---,0.00,VWS V14.01,2013-03-01 07:08:00,
2013-03-01 01:09:00,33.7,18.9,30.27,NNW,338,0.0,0.0,54,0.00,,---,0.00,VWS V14.01,2013-03-01 07:09:00,
2013-03-01 01:10:00,33.6,18.7,30.27,NNW,338,0.0,0.0,54,0.00,,---,0.00,VWS V14.01,2013-03-01 07:10:00,
2013-03-01 01:11:00,33.6,18.7,30.27,NNW,338,0.0,0.0,54,0.00,,---,0.00,VWS V14.01,2013-03-01 07:11:00,
2013-03-01 01:12:00,33.7,18.9,30.27,NNW,338,0.0,0.0,54,0.00,,---,0.00,VWS V14.01,2013-03-01 07:12:00,
2013-03-01 01:13:00,33.7,18.9,30.27,NNW,338,0.0,0.0,54,0.00,,---,0.00,VWS V14.01,2013-03-01 07:13:00,
2013-03-01 01:14:00,33.7,18.9,30.27,NNW,338,0.0,0.0,54,0.00,,---,0.00,VWS V14.01,2013-03-01 07:14:00,
2013-03-01 01:15:00,33.7,18.9,30.27,NNW,338,0.0,0.0,54,0.00,,---,0.00,VWS V14.01,2013-03-01 07:15:00,
2013-03-01 01:16:00,33.0,18.2,30.27,WNW,292,0.0,0.0,54,0.00,,---,0.00,VWS V14.01,2013-03-01 07:16:00,
2013-03-01 01:17:00,33.4,18.5,30.27,WNW,292,0.0,0.0,54,0.00,,---,0.00,VWS V14.01,2013-03-01 07:17:00,
2013-03-01 01:18:00,33.2,18.4,30.27,WNW,292,0.0,0.0,54,0.00,,---,0.00,VWS V14.01,2013-03-01 07:18:00,
2013-03-01 01:19:00,33.2,18.4,30.27,WNW,292,0.0,0.0,54,0.00,,---,0.00,VWS V14.01,2013-03-01 07:19:00,
2013-03-01 01:20:00,33.2,18.4,30.27,WNW,292,0.0,0.0,54,0.00,,---,0.00,VWS V14.01,2013-03-01 07:20:00,
2013-03-01 01:21:00,33.0,18.6,30.27,WNW,292,0.0,0.0,55,0.00,,---,0.00,VWS V14.01,2013-03-01 07:21:00,
2013-03-01 01:22:00,33.2,18.4,30.27,WNW,292,0.0,0.0,54,0.00,,---,0.00,VWS V14.01,2013-03-01 07:22:00,
2013-03-01 01:23:00,33.2,18.4,30.27,WNW,292,0.0,0.0,54,0.00,,---,0.00,VWS V14.01,2013-03-01 07:23:00,
2013-03-01 01:24:00,33.2,18.8,30.27,WNW,292,0.0,0.0,55,0.00,,---,0.00,VWS V14.01,2013-03-01 07:24:00,
2013-03-01 01:25:00,33.0,18.6,30.27,WNW,292,0.0,0.0,55,0.00,,---,0.00,VWS V14.01,2013-03-01 07:25:00,
2013-03-01 01:26:00,32.7,18.3,30.27,WNW,292,0.0,0.0,55,0.00,,---,0.00,VWS V14.01,2013-03-01 07:26:00,
2013-03-01 01:27:00,33.0,18.2,30.27,WNW,292,0.0,0.0,54,0.00,,---,0.00,VWS V14.01,2013-03-01 07:27:00,
2013-03-01 01:28:00,33.0,18.2,30.27,WNW,292,0.0,0.0,54,0.00,,---,0.00,VWS V14.01,2013-03-01 07:28:00,
2013-03-01 01:29:00,33.0,18.2,30.27,WNW,292,0.0,0.0,54,0.00,,---,0.00,VWS V14.01,2013-03-01 07:29:00,
2013-03-01 01:30:00,33.0,18.6,30.27,WNW,292,0.0,0.0,55,0.00,,---,0.00,VWS V14.01,2013-03-01 07:30:00,
2013-03-01 01:31:00,32.3,18.0,30.27,WNW,292,0.0,0.0,55,0.00,,---,0.00,VWS V14.01,2013-03-01 07:31:00,
2013-03-01 01:32:00,33.0,18.6,30.27,WNW,292,0.0,0.0,55,0.00,,---,0.00,VWS V14.01,2013-03-01 07:32:00,
2013-03-01 01:33:00,33.0,18.6,30.27,WNW,292,0.0,0.0,55,0.00,,---,0.00,VWS V14.01,2013-03-01 07:33:00,
2013-03-01 01:34:00,32.9,18.5,30.27,WNW,292,0.0,0.0,55,0.00,,---,0.00,VWS V14.01,2013-03-01 07:34:00,
2013-03-01 01:35:00,32.9,18.5,30.27,WNW,292,0.0,0.0,55,0.00,,---,0.00,VWS V14.01,2013-03-01 07:35:00,
2013-03-01 01:36:00,32.2,18.2,30.27,WNW,292,0.0,0.0,56,0.00,,---,0.00,VWS V14.01,2013-03-01 07:36:00,
2013-03-01 01:37:00,32.9,18.5,30.27,WNW,292,0.0,0.0,55,0.00,,---,0.00,VWS V14.01,2013-03-01 07:37:00,
2013-03-01 01:38:00,32.9,18.5,30.27,WNW,292,0.0,0.0,55,0.00,,---,0.00,VWS V14.01,2013-03-01 07:38:00,
2013-03-01 01:39:00,32.5,18.1,30.27,WNW,292,0.0,0.0,55,0.00,,---,0.00,VWS V14.01,2013-03-01 07:39:00,
2013-03-01 01:40:00,32.5,18.1,30.27,WNW,292,0.0,0.0,55,0.00,,---,0.00,VWS V14.01,2013-03-01 07:40:00,
2013-03-01 01:41:00,32.0,18.5,30.27,WNW,292,0.0,0.0,57,0.00,,---,0.00,VWS V14.01,2013-03-01 07:41:00,
2013-03-01 01:43:00,32.3,18.0,30.27,WNW,292,0.0,0.0,55,0.00,,---,0.00,VWS V14.01,2013-03-01 07:43:00,
2013-03-01 01:44:00,32.3,18.0,30.27,WNW,292,0.0,0.0,55,0.00,,---,0.00,VWS V14.01,2013-03-01 07:44:00,
2013-03-01 01:45:00,32.2,18.2,30.27,WNW,292,0.0,0.0,56,0.00,,---,0.00,VWS V14.01,2013-03-01 07:45:00,
2013-03-01 01:46:00,31.6,19.0,30.27,WNW,292,0.0,0.0,59,0.00,,---,0.00,VWS V14.01,2013-03-01 07:46:00,
2013-03-01 01:47:00,32.2,18.2,30.27,WNW,292,0.0,0.0,56,0.00,,---,0.00,VWS V14.01,2013-03-01 07:47:00,
2013-03-01 01:48:00,32.2,18.2,30.27,WNW,292,0.0,0.0,56,0.00,,---,0.00,VWS V14.01,2013-03-01 07:48:00,
2013-03-01 01:49:00,32.0,18.1,30.27,WNW,292,0.0,0.0,56,0.00,,---,0.00,VWS V14.01,2013-03-01 07:49:00,
2013-03-01 01:50:00,32.0,18.1,30.27,WNW,292,0.0,0.0,56,0.00,,---,0.00,VWS V14.01,2013-03-01 07:50:00,
2013-03-01 01:51:00,31.3,19.4,30.27,WNW,292,0.0,0.0,61,0.00,,---,0.00,VWS V14.01,2013-03-01 07:51:00,
2013-03-01 01:52:00,32.0,18.5,30.27,WNW,292,0.0,0.0,57,0.00,,---,0.00,VWS V14.01,2013-03-01 07:52:00,
2013-03-01 01:53:00,32.0,18.5,30.27,WNW,292,0.0,0.0,57,0.00,,---,0.00,VWS V14.01,2013-03-01 07:53:00,
2013-03-01 01:54:00,32.0,18.5,30.27,WNW,292,0.0,0.0,57,0.00,,---,0.00,VWS V14.01,2013-03-01 07:54:00,
2013-03-01 01:55:00,31.8,18.3,30.27,WNW,292,0.0,0.0,57,0.00,,---,0.00,VWS V14.01,2013-03-01 07:55:00,
2013-03-01 01:56:00,31.8,18.7,30.27,WNW,292,0.0,0.0,58,0.00,,---,0.00,VWS V14.01,2013-03-01 07:56:00,
2013-03-01 01:57:00,31.3,19.0,30.27,WNW,292,0.0,0.0,60,0.00,,---,0.00,VWS V14.01,2013-03-01 07:57:00,
2013-03-01 01:58:00,31.6,19.0,30.27,WNW,292,0.0,0.0,59,0.00,,---,0.00,VWS V14.01,2013-03-01 07:58:00,
2013-03-01 01:59:00,31.6,19.0,30.27,WNW,292,0.0,0.0,59,0.00,,---,0.00,VWS V14.01,2013-03-01 07:59:00,
2013-03-01 02:00:00,31.6,19.3,30.27,WNW,292,0.0,0.0,60,0.00,,---,0.00,VWS V14.01,2013-03-01 08:00:00,
2013-03-01 02:01:00,31.4,19.2,30.27,WNW,292,0.0,0.0,60,0.00,,---,0.00,VWS V14.01,2013-03-01 08:01:00,
2013-03-01 02:02:00,31.6,19.7,30.27,North,0,0.0,0.0,61,0.00,,---,0.00,VWS V14.01,2013-03-01 08:02:00,
2013-03-01 02:03:00,31.3,19.4,30.27,WNW,292,0.0,0.0,61,0.00,,---,0.00,VWS V14.01,2013-03-01 08:03:00,
2013-03-01 02:04:00,31.3,19.4,30.27,WNW,292,0.0,0.0,61,0.00,,---,0.00,VWS V14.01,2013-03-01 08:04:00,
2013-03-01 02:05:00,31.3,19.4,30.27,WNW,292,0.0,0.0,61,0.00,,---,0.00,VWS V14.01,2013-03-01 08:05:00,
2013-03-01 02:06:00,31.3,19.4,30.27,WNW,292,0.0,0.0,61,0.00,,---,0.00,VWS V14.01,2013-03-01 08:06:00,
2013-03-01 02:07:00,31.3,19.4,30.27,WNW,292,0.0,0.0,61,0.00,,---,0.00,VWS V14.01,2013-03-01 08:07:00,
2013-03-01 02:08:00,31.3,19.0,30.27,WNW,292,0.0,0.0,60,0.00,,---,0.00,VWS V14.01,2013-03-01 08:08:00,
2013-03-01 02:09:00,31.3,19.0,30.27,WNW,292,0.0,0.0,60,0.00,,---,0.00,VWS V14.01,2013-03-01 08:09:00,
2013-03-01 02:10:00,31.4,19.2,30.27,WNW,292,0.0,0.0,60,0.00,,---,0.00,VWS V14.01,2013-03-01 08:10:00,
2013-03-01 02:11:00,31.4,19.2,30.27,North,0,0.0,0.0,60,0.00,,---,0.00,VWS V14.01,2013-03-01 08:11:00,
2013-03-01 02:12:00,31.8,19.9,30.27,NW,315,1.6,1.6,61,0.00,,---,0.00,VWS V14.01,2013-03-01 08:12:00,
2013-03-01 02:13:00,31.4,19.2,30.27,North,0,0.0,0.0,60,0.00,,---,0.00,VWS V14.01,2013-03-01 08:13:00,
2013-03-01 02:14:00,31.6,19.7,30.27,North,0,0.0,0.0,61,0.00,,---,0.00,VWS V14.01,2013-03-01 08:14:00,
2013-03-01 02:15:00,31.4,19.2,30.27,North,0,1.6,1.6,60,0.00,,---,0.00,VWS V14.01,2013-03-01 08:15:00,
2013-03-01 02:16:00,31.4,19.2,30.27,NNW,338,2.0,2.0,60,0.00,,---,0.00,VWS V14.01,2013-03-01 08:16:00,
2013-03-01 02:17:00,32.3,21.5,30.27,WNW,292,0.0,1.3,64,0.00,,---,0.00,VWS V14.01,2013-03-01 08:17:00,
2013-03-01 02:18:00,31.6,19.3,30.27,NNW,338,0.0,2.0,60,0.00,,---,0.00,VWS V14.01,2013-03-01 08:18:00,
2013-03-01 02:19:00,31.8,19.5,30.27,NNW,338,0.0,0.0,60,0.00,,---,0.00,VWS V14.01,2013-03-01 08:19:00,
2013-03-01 02:20:00,31.8,19.9,30.27,NW,315,0.0,0.0,61,0.00,,---,0.00,VWS V14.01,2013-03-01 08:20:00,
2013-03-01 02:21:00,31.8,19.9,30.27,NW,315,1.6,1.6,61,0.00,,---,0.00,VWS V14.01,2013-03-01 08:21:00,
2013-03-01 02:22:00,32.2,21.4,30.30,WNW,292,0.0,0.0,64,0.00,,---,0.00,VWS V14.01,2013-03-01 08:22:00,
2013-03-01 02:23:00,31.8,19.9,30.27,NW,315,1.6,1.6,61,0.00,,---,0.00,VWS V14.01,2013-03-01 08:23:00,
2013-03-01 02:24:00,31.8,19.9,30.27,NW,315,1.6,1.6,61,0.00,,---,0.00,VWS V14.01,2013-03-01 08:24:00,
2013-03-01 02:25:00,32.0,21.5,30.27,NW,315,2.0,2.0,65,0.00,,---,0.00,VWS V14.01,2013-03-01 08:25:00,
2013-03-01 02:26:00,32.0,21.9,30.27,WNW,292,1.6,2.0,66,0.00,,---,0.00,VWS V14.01,2013-03-01 08:26:00,
2013-03-01 02:27:00,32.0,21.2,30.30,WNW,292,0.0,0.0,64,0.00,,---,0.00,VWS V14.01,2013-03-01 08:27:00,
2013-03-01 02:28:00,32.2,21.7,30.27,WNW,292,1.1,1.1,65,0.00,,---,0.00,VWS V14.01,2013-03-01 08:28:00,
2013-03-01 02:29:00,32.3,21.5,30.27,WNW,292,0.0,1.3,64,0.00,,---,0.00,VWS V14.01,2013-03-01 08:29:00,
2013-03-01 02:30:00,32.3,21.5,30.27,WNW,292,0.0,0.0,64,0.00,,---,0.00,VWS V14.01,2013-03-01 08:30:00,
2013-03-01 02:31:00,32.3,21.5,30.27,WNW,292,0.0,0.0,64,0.00,,---,0.00,VWS V14.01,2013-03-01 08:31:00,
2013-03-01 02:32:00,32.0,20.8,30.30,WNW,292,0.0,0.0,63,0.00,,---,0.00,VWS V14.01,2013-03-01 08:32:00,
2013-03-01 02:33:00,32.2,21.4,30.30,WNW,292,0.0,0.0,64,0.00,,---,0.00,VWS V14.01,2013-03-01 08:33:00,
2013-03-01 02:34:00,32.2,21.4,30.30,WNW,292,0.0,0.0,64,0.00,,---,0.00,VWS V14.01,2013-03-01 08:34:00,
2013-03-01 02:35:00,32.2,21.7,30.30,WNW,292,0.0,0.0,65,0.00,,---,0.00,VWS V14.01,2013-03-01 08:35:00,
2013-03-01 02:36:00,32.0,21.5,30.30,WNW,292,0.0,0.0,65,0.00,,---,0.00,VWS V14.01,2013-03-01 08:36:00,
2013-03-01 02:37:00,31.8,19.9,30.27,WNW,292,0.0,0.0,61,0.00,,---,0.00,VWS V14.01,2013-03-01 08:37:00,
2013-03-01 02:38:00,32.0,21.2,30.30,WNW,292,0.0,0.0,64,0.00,,---,0.00,VWS V14.01,2013-03-01 08:38:00,
2013-03-01 02:39:00,32.0,21.2,30.30,WNW,292,0.0,0.0,64,0.00,,---,0.00,VWS V14.01,2013-03-01 08:39:00,
2013-03-01 02:40:00,32.0,20.8,30.30,WNW,292,0.0,0.0,63,0.00,,---,0.00,VWS V14.01,2013-03-01 08:40:00,
2013-03-01 02:41:00,32.0,20.4,30.30,WNW,292,0.0,0.0,62,0.00,,---,0.00,VWS V14.01,2013-03-01 08:41:00,
2013-03-01 02:42:00,31.4,19.6,30.27,WNW,292,0.0,0.0,61,0.00,,---,0.00,VWS V14.01,2013-03-01 08:42:00,
2013-03-01 02:43:00,32.0,20.4,30.30,WNW,292,0.0,0.0,62,0.00,,---,0.00,VWS V14.01,2013-03-01 08:43:00,
2013-03-01 02:44:00,32.0,20.8,30.30,WNW,292,0.0,0.0,63,0.00,,---,0.00,VWS V14.01,2013-03-01 08:44:00,
2013-03-01 02:45:00,31.8,20.6,30.30,WNW,292,0.0,0.0,63,0.00,,---,0.00,VWS V14.01,2013-03-01 08:45:00,
2013-03-01 02:46:00,31.8,20.6,30.30,WNW,292,0.0,0.0,63,0.00,,---,0.00,VWS V14.01,2013-03-01 08:46:00,
2013-03-01 02:47:00,31.6,19.7,30.27,WNW,292,0.0,0.0,61,0.00,,---,0.00,VWS V14.01,2013-03-01 08:47:00,
2013-03-01 02:48:00,31.8,20.3,30.27,WNW,292,0.0,0.0,62,0.00,,---,0.00,VWS V14.01,2013-03-01 08:48:00,
2013-03-01 02:49:00,31.8,19.9,30.27,WNW,292,0.0,0.0,61,0.00,,---,0.00,VWS V14.01,2013-03-01 08:49:00,
2013-03-01 02:50:00,31.8,19.9,30.27,WNW,292,0.0,0.0,61,0.00,,---,0.00,VWS V14.01,2013-03-01 08:50:00,
2013-03-01 02:51:00,31.6,19.7,30.27,NW,315,0.0,0.0,61,0.00,,---,0.00,VWS V14.01,2013-03-01 08:51:00,
2013-03-01 02:52:00,31.1,18.8,30.27,WNW,292,0.0,0.0,60,0.00,,---,0.00,VWS V14.01,2013-03-01 08:52:00,
2013-03-01 02:53:00,31.6,19.7,30.27,NW,315,0.0,0.0,61,0.00,,---,0.00,VWS V14.01,2013-03-01 08:53:00,
2013-03-01 02:54:00,31.4,19.6,30.27,WNW,292,0.0,0.0,61,0.00,,---,0.00,VWS V14.01,2013-03-01 08:54:00,
2013-03-01 02:55:00,31.4,19.6,30.27,WNW,292,0.0,0.0,61,0.00,,---,0.00,VWS V14.01,2013-03-01 08:55:00,
2013-03-01 02:56:00,31.4,19.6,30.27,WNW,292,0.0,0.0,61,0.00,,---,0.00,VWS V14.01,2013-03-01 08:56:00,
2013-03-01 02:57:00,31.1,18.8,30.27,WNW,292,0.0,0.0,60,0.00,,---,0.00,VWS V14.01,2013-03-01 08:57:00,
2013-03-01 02:58:00,31.6,19.7,30.27,WNW,292,0.0,0.0,61,0.00,,---,0.00,VWS V14.01,2013-03-01 08:58:00,
2013-03-01 02:59:00,31.6,19.7,30.27,WNW,292,0.0,0.0,61,0.00,,---,0.00,VWS V14.01,2013-03-01 08:59:00,
2013-03-01 03:00:00,31.4,19.6,30.27,WNW,292,0.0,0.0,61,0.00,,---,0.00,VWS V14.01,2013-03-01 09:00:00,
2013-03-01 03:01:00,31.4,19.6,30.27,WNW,292,0.0,0.0,61,0.00,,---,0.00,VWS V14.01,2013-03-01 09:01:00,
2013-03-01 03:02:00,30.5,18.3,30.27,WNW,292,0.0,0.0,60,0.00,,---,0.00,VWS V14.01,2013-03-01 09:02:00,
2013-03-01 03:03:00,31.1,19.2,30.27,WNW,292,0.0,0.0,61,0.00,,---,0.00,VWS V14.01,2013-03-01 09:03:00,
2013-03-01 03:04:00,31.1,18.8,30.27,WNW,292,0.0,0.0,60,0.00,,---,0.00,VWS V14.01,2013-03-01 09:04:00,
2013-03-01 03:05:00,31.3,19.0,30.27,WNW,292,0.0,0.0,60,0.00,,---,0.00,VWS V14.01,2013-03-01 09:05:00,
2013-03-01 03:06:00,31.3,19.0,30.27,WNW,292,0.0,0.0,60,0.00,,---,0.00,VWS V14.01,2013-03-01 09:06:00,
2013-03-01 03:07:00,31.3,19.0,30.27,WNW,292,0.0,0.0,60,0.00,,---,0.00,VWS V14.01,2013-03-01 09:07:00,
2013-03-01 03:08:00,31.1,19.2,30.27,WNW,292,0.0,0.0,61,0.00,,---,0.00,VWS V14.01,2013-03-01 09:08:00,
2013-03-01 03:09:00,31.1,18.8,30.27,WNW,292,0.0,0.0,60,0.00,,---,0.00,VWS V14.01,2013-03-01 09:09:00,
2013-03-01 03:10:00,30.9,18.7,30.27,WNW,292,0.0,0.0,60,0.00,,---,0.00,VWS V14.01,2013-03-01 09:10:00,
2013-03-01 03:11:00,30.7,18.5,30.27,WNW,292,0.0,0.0,60,0.00,,---,0.00,VWS V14.01,2013-03-01 09:11:00,
2013-03-01 03:12:00,30.2,18.4,30.27,ENE,68,0.0,0.0,61,0.00,,---,0.00,VWS V14.01,2013-03-01 09:12:00,
2013-03-01 03:13:00,30.5,18.3,30.27,WNW,292,0.0,0.0,60,0.00,,---,0.00,VWS V14.01,2013-03-01 09:13:00,
2013-03-01 03:14:00,30.5,18.3,30.27,WNW,292,0.0,0.0,60,0.00,,---,0.00,VWS V14.01,2013-03-01 09:14:00,
2013-03-01 03:15:00,30.4,18.2,30.27,WNW,292,0.0,0.0,60,0.00,,---,0.00,VWS V14.01,2013-03-01 09:15:00,
2013-03-01 03:16:00,30.4,18.2,30.27,WNW,292,0.0,0.0,60,0.00,,---,0.00,VWS V14.01,2013-03-01 09:16:00,
2013-03-01 03:17:00,30.2,19.1,30.27,ENE,68,0.0,0.0,63,0.00,,---,0.00,VWS V14.01,2013-03-01 09:17:00,
2013-03-01 03:18:00,30.2,18.4,30.27,WNW,292,0.0,0.0,61,0.00,,---,0.00,VWS V14.01,2013-03-01 09:18:00,
2013-03-01 03:19:00,30.2,18.4,30.27,WNW,292,0.0,0.0,61,0.00,,---,0.00,VWS V14.01,2013-03-01 09:19:00,
2013-03-01 03:20:00,30.2,18.4,30.27,ENE,68,0.0,0.0,61,0.00,,---,0.00,VWS V14.01,2013-03-01 09:20:00,
2013-03-01 03:21:00,30.2,18.4,30.27,ENE,68,0.0,0.0,61,0.00,,---,0.00,VWS V14.01,2013-03-01 09:21:00,
2013-03-01 03:22:00,30.2,19.5,30.30,ENE,68,0.0,0.0,64,0.00,,---,0.00,VWS V14.01,2013-03-01 09:22:00,
2013-03-01 03:23:00,30.2,18.4,30.27,ENE,68,0.0,0.0,61,0.00,,---,0.00,VWS V14.01,2013-03-01 09:23:00,
2013-03-01 03:24:00,30.2,18.4,30.27,ENE,68,0.0,0.0,61,0.00,,---,0.00,VWS V14.01,2013-03-01 09:24:00,
2013-03-01 03:25:00,30.2,18.8,30.27,ENE,68,0.0,0.0,62,0.00,,---,0.00,VWS V14.01,2013-03-01 09:25:00,
2013-03-01 03:26:00,30.2,18.8,30.27,ENE,68,0.0,0.0,62,0.00,,---,0.00,VWS V14.01,2013-03-01 09:26:00,
2013-03-01 03:27:00,30.2,18.8,30.27,ENE,68,0.0,0.0,62,0.00,,---,0.00,VWS V14.01,2013-03-01 09:27:00,
2013-03-01 03:28:00,30.2,19.1,30.27,ENE,68,0.0,0.0,63,0.00,,---,0.00,VWS V14.01,2013-03-01 09:28:00,
2013-03-01 03:29:00,30.2,19.1,30.27,ENE,68,0.0,0.0,63,0.00,,---,0.00,VWS V14.01,2013-03-01 09:29:00,
2013-03-01 03:30:00,30.2,19.1,30.27,ENE,68,0.0,0.0,63,0.00,,---,0.00,VWS V14.01,2013-03-01 09:30:00,
2013-03-01 03:31:00,30.2,19.1,30.27,ENE,68,0.0,0.0,63,0.00,,---,0.00,VWS V14.01,2013-03-01 09:31:00,
2013-03-01 03:32:00,30.0,20.0,30.30,ENE,68,0.0,0.0,66,0.00,,---,0.00,VWS V14.01,2013-03-01 09:32:00,
2013-03-01 03:33:00,30.2,19.5,30.30,ENE,68,0.0,0.0,64,0.00,,---,0.00,VWS V14.01,2013-03-01 09:33:00,
2013-03-01 03:35:00,30.2,19.5,30.30,ENE,68,0.0,0.0,64,0.00,,---,0.00,VWS V14.01,2013-03-01 09:35:00,
2013-03-01 03:36:00,30.0,19.3,30.30,ENE,68,0.0,0.0,64,0.00,,---,0.00,VWS V14.01,2013-03-01 09:36:00,
2013-03-01 03:37:00,30.2,19.9,30.30,ENE,68,0.0,0.0,65,0.00,,---,0.00,VWS V14.01,2013-03-01 09:37:00,
2013-03-01 03:38:00,30.0,19.7,30.30,ENE,68,0.0,0.0,65,0.00,,---,0.00,VWS V14.01,2013-03-01 09:38:00,
2013-03-01 03:39:00,30.2,19.9,30.30,ENE,68,0.0,0.0,65,0.00,,---,0.00,VWS V14.01,2013-03-01 09:39:00,
2013-03-01 03:40:00,30.2,19.9,30.30,ENE,68,0.0,0.0,65,0.00,,---,0.00,VWS V14.01,2013-03-01 09:40:00,
2013-03-01 03:41:00,30.0,20.0,30.30,ENE,68,0.0,0.0,66,0.00,,---,0.00,VWS V14.01,2013-03-01 09:41:00,
2013-03-01 03:42:00,30.0,20.4,30.30,ENE,68,0.0,0.0,67,0.00,,---,0.00,VWS V14.01,2013-03-01 09:42:00,
2013-03-01 03:43:00,30.0,20.0,30.30,ENE,68,0.0,0.0,66,0.00,,---,0.00,VWS V14.01,2013-03-01 09:43:00,
2013-03-01 03:44:00,30.0,20.0,30.30,ENE,68,0.0,0.0,66,0.00,,---,0.00,VWS V14.01,2013-03-01 09:44:00,
2013-03-01 03:45:00,30.0,19.7,30.30,ENE,68,0.0,0.0,65,0.00,,---,0.00,VWS V14.01,2013-03-01 09:45:00,
2013-03-01 03:46:00,30.0,19.7,30.30,ENE,68,0.0,0.0,65,0.00,,---,0.00,VWS V14.01,2013-03-01 09:46:00,
2013-03-01 03:47:00,30.0,19.7,30.30,ENE,68,0.0,0.0,65,0.00,,---,0.00,VWS V14.01,2013-03-01 09:47:00,
2013-03-01 03:48:00,30.2,19.9,30.30,ENE,68,0.0,0.0,65,0.00,,---,0.00,VWS V14.01,2013-03-01 09:48:00,
2013-03-01 03:49:00,30.2,19.9,30.30,ENE,68,0.0,0.0,65,0.00,,---,0.00,VWS V14.01,2013-03-01 09:49:00,
2013-03-01 03:50:00,30.2,20.2,30.30,ENE,68,0.0,0.0,66,0.00,,---,0.00,VWS V14.01,2013-03-01 09:50:00,
2013-03-01 03:51:00,30.2,20.2,30.30,ENE,68,0.0,0.0,66,0.00,,---,0.00,VWS V14.01,2013-03-01 09:51:00,
2013-03-01 03:52:00,30.2,20.2,30.30,ENE,68,0.0,0.0,66,0.00,,---,0.00,VWS V14.01,2013-03-01 09:52:00,
2013-03-01 03:53:00,30.0,20.4,30.30,ENE,68,0.0,0.0,67,0.00,,---,0.00,VWS V14.01,2013-03-01 09:53:00,
2013-03-01 03:54:00,30.0,20.0,30.30,ENE,68,0.0,0.0,66,0.00,,---,0.00,VWS V14.01,2013-03-01 09:54:00,
2013-03-01 03:55:00,30.0,20.4,30.30,ENE,68,0.0,0.0,67,0.00,,---,0.00,VWS V14.01,2013-03-01 09:55:00,
2013-03-01 03:56:00,30.0,20.4,30.30,ENE,68,0.0,0.0,67,0.00,,---,0.00,VWS V14.01,2013-03-01 09:56:00,
2013-03-01 03:57:00,30.0,20.8,30.27,ENE,68,0.0,0.0,68,0.00,,---,0.00,VWS V14.01,2013-03-01 09:57:00,
2013-03-01 03:58:00,29.8,20.6,30.30,ENE,68,0.0,0.0,68,0.00,,---,0.00,VWS V14.01,2013-03-01 09:58:00,
2013-03-01 03:59:00,29.8,20.6,30.30,ENE,68,0.0,0.0,68,0.00,,---,0.00,VWS V14.01,2013-03-01 09:59:00,
2013-03-01 04:00:00,29.8,20.2,30.30,ENE,68,0.0,0.0,67,0.00,,---,0.00,VWS V14.01,2013-03-01 10:00:00,
2013-03-01 04:01:00,29.8,20.6,30.27,ENE,68,0.0,0.0,68,0.00,,---,0.00,VWS V14.01,2013-03-01 10:01:00,
2013-03-01 04:02:00,30.2,21.3,30.27,ENE,68,0.0,0.0,69,0.00,,---,0.00,VWS V14.01,2013-03-01 10:02:00,
2013-03-01 04:03:00,29.8,20.2,30.27,ENE,68,0.0,0.0,67,0.00,,---,0.00,VWS V14.01,2013-03-01 10:03:00,
2013-03-01 04:04:00,29.8,20.2,30.27,ENE,68,0.0,0.0,67,0.00,,---,0.00,VWS V14.01,2013-03-01 10:04:00,
2013-03-01 04:05:00,29.8,20.2,30.27,ENE,68,0.0,0.0,67,0.00,,---,0.00,VWS V14.01,2013-03-01 10:05:00,
2013-03-01 04:06:00,29.8,20.2,30.27,ENE,68,0.0,0.0,67,0.00,,---,0.00,VWS V14.01,2013-03-01 10:06:00,
2013-03-01 04:07:00,30.2,20.9,30.27,SW,225,0.0,0.0,68,0.00,,---,0.00,VWS V14.01,2013-03-01 10:07:00,
2013-03-01 04:08:00,30.0,20.4,30.27,ENE,68,0.0,0.0,67,0.00,,---,0.00,VWS V14.01,2013-03-01 10:08:00,
2013-03-01 04:09:00,30.0,20.4,30.27,ENE,68,0.0,0.0,67,0.00,,---,0.00,VWS V14.01,2013-03-01 10:09:00,
2013-03-01 04:10:00,30.0,20.8,30.27,ENE,68,0.0,0.0,68,0.00,,---,0.00,VWS V14.01,2013-03-01 10:10:00,
2013-03-01 04:11:00,30.2,20.9,30.27,ENE,68,0.0,0.0,68,0.00,,---,0.00,VWS V14.01,2013-03-01 10:11:00,
2013-03-01 04:12:00,30.2,20.9,30.27,WSW,248,1.1,1.1,68,0.00,,---,0.00,VWS V14.01,2013-03-01 10:12:00,
2013-03-01 04:13:00,30.2,21.3,30.27,ENE,68,0.0,0.0,69,0.00,,---,0.00,VWS V14.01,2013-03-01 10:13:00,
2013-03-01 04:14:00,30.2,21.3,30.27,ENE,68,0.0,0.0,69,0.00,,---,0.00,VWS V14.01,2013-03-01 10:14:00,
2013-03-01 04:15:00,30.2,21.3,30.27,ENE,68,0.0,0.0,69,0.00,,---,0.00,VWS V14.01,2013-03-01 10:15:00,
2013-03-01 04:16:00,30.2,21.3,30.27,ENE,68,0.0,0.0,69,0.00,,---,0.00,VWS V14.01,2013-03-01 10:16:00,
2013-03-01 04:17:00,30.2,21.6,30.27,WSW,248,0.0,0.0,70,0.00,,---,0.00,VWS V14.01,2013-03-01 10:17:00,
2013-03-01 04:18:00,30.2,21.3,30.27,SW,225,0.0,0.0,69,0.00,,---,0.00,VWS V14.01,2013-03-01 10:18:00,
2013-03-01 04:19:00,30.2,20.9,30.27,SW,225,0.0,0.0,68,0.00,,---,0.00,VWS V14.01,2013-03-01 10:19:00,
2013-03-01 04:20:00,30.2,20.9,30.27,SW,225,0.0,0.0,68,0.00,,---,0.00,VWS V14.01,2013-03-01 10:20:00,
2013-03-01 04:21:00,30.2,20.9,30.27,SW,225,0.0,0.0,68,0.00,,---,0.00,VWS V14.01,2013-03-01 10:21:00,
2013-03-01 04:22:00,30.2,21.6,30.27,WSW,248,0.0,0.0,70,0.00,,---,0.00,VWS V14.01,2013-03-01 10:22:00,
2013-03-01 04:23:00,30.2,20.9,30.27,WSW,248,1.1,1.1,68,0.00,,---,0.00,VWS V14.01,2013-03-01 10:23:00,
2013-03-01 04:24:00,30.2,20.9,30.27,WSW,248,0.0,1.1,68,0.00,,---,0.00,VWS V14.01,2013-03-01 10:24:00,
2013-03-01 04:25:00,30.2,20.9,30.27,WSW,248,0.0,1.1,68,0.00,,---,0.00,VWS V14.01,2013-03-01 10:25:00,
2013-03-01 04:26:00,30.2,21.3,30.27,WSW,248,0.0,0.0,69,0.00,,---,0.00,VWS V14.01,2013-03-01 10:26:00,
2013-03-01 04:27:00,29.8,21.6,30.27,WSW,248,0.0,0.0,71,0.00,,---,0.00,VWS V14.01,2013-03-01 10:27:00,
2013-03-01 04:28:00,30.2,21.3,30.27,WSW,248,0.0,0.0,69,0.00,,---,0.00,VWS V14.01,2013-03-01 10:28:00,
2013-03-01 04:29:00,30.2,21.3,30.27,WSW,248,0.0,0.0,69,0.00,,---,0.00,VWS V14.01,2013-03-01 10:29:00,
2013-03-01 04:30:00,30.2,21.6,30.27,WSW,248,0.0,0.0,70,0.00,,---,0.00,VWS V14.01,2013-03-01 10:30:00,
2013-03-01 04:31:00,30.2,21.6,30.27,WSW,248,0.0,0.0,70,0.00,,---,0.00,VWS V14.01,2013-03-01 10:31:00,
2013-03-01 04:32:00,29.5,21.6,30.27,WSW,248,0.0,0.0,72,0.00,,---,0.00,VWS V14.01,2013-03-01 10:32:00,
2013-03-01 04:33:00,30.2,21.6,30.27,WSW,248,0.0,0.0,70,0.00,,---,0.00,VWS V14.01,2013-03-01 10:33:00,
2013-03-01 04:34:00,30.2,21.6,30.27,WSW,248,0.0,0.0,70,0.00,,---,0.00,VWS V14.01,2013-03-01 10:34:00,
2013-03-01 04:35:00,30.2,21.6,30.27,WSW,248,0.0,0.0,70,0.00,,---,0.00,VWS V14.01,2013-03-01 10:35:00,
2013-03-01 04:36:00,30.2,21.6,30.27,WSW,248,0.0,0.0,70,0.00,,---,0.00,VWS V14.01,2013-03-01 10:36:00,
2013-03-01 04:37:00,29.3,21.4,30.27,WSW,248,0.0,1.1,72,0.00,,---,0.00,VWS V14.01,2013-03-01 10:37:00,
2013-03-01 04:38:00,30.0,21.8,30.27,WSW,248,0.0,0.0,71,0.00,,---,0.00,VWS V14.01,2013-03-01 10:38:00,
2013-03-01 04:39:00,30.0,21.8,30.27,WSW,248,0.0,0.0,71,0.00,,---,0.00,VWS V14.01,2013-03-01 10:39:00,
2013-03-01 04:40:00,29.8,21.6,30.27,WSW,248,0.0,0.0,71,0.00,,---,0.00,VWS V14.01,2013-03-01 10:40:00,
2013-03-01 04:41:00,29.8,21.6,30.27,WSW,248,0.0,0.0,71,0.00,,---,0.00,VWS V14.01,2013-03-01 10:41:00,
2013-03-01 04:42:00,29.7,21.4,30.27,WSW,248,0.0,0.0,71,0.00,,---,0.00,VWS V14.01,2013-03-01 10:42:00,
2013-03-01 04:43:00,29.8,21.6,30.27,NW,315,1.6,1.6,71,0.00,,---,0.00,VWS V14.01,2013-03-01 10:43:00,
2013-03-01 04:44:00,29.5,21.6,30.27,WSW,248,0.0,0.0,72,0.00,,---,0.00,VWS V14.01,2013-03-01 10:44:00,
2013-03-01 04:45:00,29.5,21.6,30.27,WSW,248,0.0,0.0,72,0.00,,---,0.00,VWS V14.01,2013-03-01 10:45:00,
2013-03-01 04:46:00,29.5,21.6,30.27,WSW,248,0.0,0.0,72,0.00,,---,0.00,VWS V14.01,2013-03-01 10:46:00,
2013-03-01 04:47:00,29.5,21.6,30.27,WSW,248,0.0,0.0,72,0.00,,---,0.00,VWS V14.01,2013-03-01 10:47:00,
2013-03-01 04:48:00,29.8,21.9,30.27,NNW,338,1.3,1.6,72,0.00,,---,0.00,VWS V14.01,2013-03-01 10:48:00,
2013-03-01 04:49:00,29.3,21.4,30.27,WSW,248,1.1,1.1,72,0.00,,---,0.00,VWS V14.01,2013-03-01 10:49:00,
2013-03-01 04:50:00,29.3,21.4,30.27,WSW,248,0.0,1.1,72,0.00,,---,0.00,VWS V14.01,2013-03-01 10:50:00,
2013-03-01 04:51:00,29.3,21.4,30.27,WSW,248,0.0,0.0,72,0.00,,---,0.00,VWS V14.01,2013-03-01 10:51:00,
2013-03-01 04:52:00,29.5,21.6,30.27,WNW,292,0.9,0.9,72,0.00,,---,0.00,VWS V14.01,2013-03-01 10:52:00,
2013-03-01 04:53:00,29.7,22.4,30.27,NE,45,0.0,0.0,74,0.00,,---,0.00,VWS V14.01,2013-03-01 10:53:00,
2013-03-01 04:54:00,29.8,21.9,30.27,NW,315,1.3,1.6,72,0.00,,---,0.00,VWS V14.01,2013-03-01 10:54:00,
2013-03-01 04:55:00,29.8,21.6,30.27,NW,315,1.3,1.6,71,0.00,,---,0.00,VWS V14.01,2013-03-01 10:55:00,
2013-03-01 04:56:00,29.8,21.6,30.27,NNW,338,1.3,1.3,71,0.00,,---,0.00,VWS V14.01,2013-03-01 10:56:00,
2013-03-01 04:57:00,29.8,21.6,30.27,NNW,338,1.6,2.0,71,0.00,,---,0.00,VWS V14.01,2013-03-01 10:57:00,
2013-03-01 04:58:00,29.7,22.1,30.27,NE,45,0.0,0.0,73,0.00,,---,0.00,VWS V14.01,2013-03-01 10:58:00,
2013-03-01 04:59:00,29.8,21.9,30.27,NNW,338,1.6,1.6,72,0.00,,---,0.00,VWS V14.01,2013-03-01 10:59:00,
2013-03-01 05:00:00,29.8,21.9,30.27,NNW,338,1.6,1.6,72,0.00,,---,0.00,VWS V14.01,2013-03-01 11:00:00,
2013-03-01 05:01:00,29.8,21.9,30.27,NNW,338,1.1,1.6,72,0.00,,---,0.00,VWS V14.01,2013-03-01 11:01:00,
2013-03-01 05:02:00,29.8,21.9,30.27,North,0,0.9,1.3,72,0.00,,---,0.00,VWS V14.01,2013-03-01 11:02:00,
2013-03-01 05:03:00,29.7,22.1,30.27,North,0,0.0,0.0,73,0.00,,---,0.00,VWS V14.01,2013-03-01 11:03:00,
2013-03-01 05:04:00,29.8,22.6,30.27,North,0,0.0,0.9,74,0.00,,---,0.00,VWS V14.01,2013-03-01 11:04:00,
2013-03-01 05:05:00,29.7,22.4,30.27,NE,45,0.0,0.0,74,0.00,,---,0.00,VWS V14.01,2013-03-01 11:05:00,
2013-03-01 05:06:00,29.7,22.4,30.27,NE,45,0.0,0.0,74,0.00,,---,0.00,VWS V14.01,2013-03-01 11:06:00,
2013-03-01 05:07:00,29.7,22.1,30.27,NE,45,0.0,0.0,73,0.00,,---,0.00,VWS V14.01,2013-03-01 11:07:00,
2013-03-01 05:08:00,29.8,21.9,30.27,North,0,0.0,0.0,72,0.00,,---,0.00,VWS V14.01,2013-03-01 11:08:00,
2013-03-01 05:10:00,29.7,22.1,30.27,NE,45,0.0,0.0,73,0.00,,---,0.00,VWS V14.01,2013-03-01 11:10:00,
2013-03-01 05:11:00,29.5,22.2,30.27,NE,45,0.0,0.0,74,0.00,,---,0.00,VWS V14.01,2013-03-01 11:11:00,
2013-03-01 05:12:00,29.5,22.2,30.27,NE,45,0.0,0.0,74,0.00,,---,0.00,VWS V14.01,2013-03-01 11:12:00,
2013-03-01 05:13:00,29.5,21.9,30.27,North,0,0.0,0.0,73,0.00,,---,0.00,VWS V14.01,2013-03-01 11:13:00,
2013-03-01 05:14:00,29.7,22.1,30.27,NNE,22,0.0,0.0,73,0.00,,---,0.00,VWS V14.01,2013-03-01 11:14:00,
2013-03-01 05:15:00,29.7,22.1,30.27,North,0,0.0,0.0,73,0.00,,---,0.00,VWS V14.01,2013-03-01 11:15:00,
2013-03-01 05:16:00,29.7,22.1,30.27,NNW,338,0.0,0.0,73,0.00,,---,0.00,VWS V14.01,2013-03-01 11:16:00,
2013-03-01 05:17:00,29.7,22.1,30.27,NNW,338,0.0,0.0,73,0.00,,---,0.00,VWS V14.01,2013-03-01 11:17:00,
2013-03-01 05:18:00,29.1,20.9,30.27,North,0,0.0,0.0,71,0.00,,---,0.00,VWS V14.01,2013-03-01 11:18:00,
2013-03-01 05:19:00,29.8,21.9,30.27,North,0,0.0,0.0,72,0.00,,---,0.00,VWS V14.01,2013-03-01 11:19:00,
2013-03-01 05:20:00,29.8,21.9,30.27,North,0,0.0,0.0,72,0.00,,---,0.00,VWS V14.01,2013-03-01 11:20:00,
2013-03-01 05:21:00,29.7,21.8,30.27,North,0,0.0,0.0,72,0.00,,---,0.00,VWS V14.01,2013-03-01 11:21:00,
2013-03-01 05:22:00,29.7,21.8,30.27,North,0,0.0,0.0,72,0.00,,---,0.00,VWS V14.01,2013-03-01 11:22:00,
2013-03-01 05:23:00,28.8,20.2,30.27,ESE,112,0.0,0.0,70,0.00,,---,0.00,VWS V14.01,2013-03-01 11:23:00,
2013-03-01 05:24:00,29.5,21.9,30.27,North,0,0.0,0.0,73,0.00,,---,0.00,VWS V14.01,2013-03-01 11:24:00,
2013-03-01 05:25:00,29.5,21.9,30.27,North,0,0.0,0.0,73,0.00,,---,0.00,VWS V14.01,2013-03-01 11:25:00,
2013-03-01 05:26:00,29.5,21.6,30.27,North,0,0.0,0.0,72,0.00,,---,0.00,VWS V14.01,2013-03-01 11:26:00,
2013-03-01 05:27:00,29.3,21.4,30.27,North,0,0.0,0.0,72,0.00,,---,0.00,VWS V14.01,2013-03-01 11:27:00,
2013-03-01 05:28:00,29.0,20.8,30.27,ESE,112,0.0,0.0,71,0.00,,---,0.00,VWS V14.01,2013-03-01 11:28:00,
2013-03-01 05:29:00,29.1,20.9,30.27,North,0,0.0,0.0,71,0.00,,---,0.00,VWS V14.01,2013-03-01 11:29:00,
2013-03-01 05:30:00,29.1,20.9,30.27,North,0,0.0,0.0,71,0.00,,---,0.00,VWS V14.01,2013-03-01 11:30:00,
2013-03-01 05:31:00,29.1,20.9,30.27,North,0,0.0,0.0,71,0.00,,---,0.00,VWS V14.01,2013-03-01 11:31:00,
2013-03-01 05:32:00,29.0,20.8,30.27,North,0,0.0,0.0,71,0.00,,---,0.00,VWS V14.01,2013-03-01 11:32:00,
2013-03-01 05:33:00,29.1,21.6,30.27,ESE,112,0.0,0.0,73,0.00,,---,0.00,VWS V14.01,2013-03-01 11:33:00,
2013-03-01 05:34:00,28.8,20.2,30.27,ESE,112,0.0,0.0,70,0.00,,---,0.00,VWS V14.01,2013-03-01 11:34:00,
2013-03-01 05:35:00,28.8,20.2,30.27,ESE,112,0.0,0.0,70,0.00,,---,0.00,VWS V14.01,2013-03-01 11:35:00,
2013-03-01 05:36:00,28.8,20.6,30.27,ESE,112,2.0,2.0,71,0.00,,---,0.00,VWS V14.01,2013-03-01 11:36:00,
2013-03-01 05:37:00,29.0,21.1,30.27,ESE,112,0.0,2.0,72,0.00,,---,0.00,VWS V14.01,2013-03-01 11:37:00,
2013-03-01 05:38:00,28.6,21.1,30.30,ESE,112,0.0,0.0,73,0.00,,---,0.00,VWS V14.01,2013-03-01 11:38:00,
2013-03-01 05:39:00,29.0,21.1,30.27,ESE,112,0.0,0.0,72,0.00,,---,0.00,VWS V14.01,2013-03-01 11:39:00,
2013-03-01 05:40:00,29.0,20.8,30.27,ESE,112,0.0,0.0,71,0.00,,---,0.00,VWS V14.01,2013-03-01 11:40:00,
2013-03-01 05:41:00,29.0,20.8,30.27,ESE,112,0.0,0.0,71,0.00,,---,0.00,VWS V14.01,2013-03-01 11:41:00,
2013-03-01 05:42:00,29.1,21.2,30.27,ESE,112,0.0,0.0,72,0.00,,---,0.00,VWS V14.01,2013-03-01 11:42:00,
2013-03-01 05:43:00,28.2,20.7,30.30,ESE,112,0.0,0.0,73,0.00,,---,0.00,VWS V14.01,2013-03-01 11:43:00,
2013-03-01 05:44:00,29.1,21.6,30.27,ESE,112,0.0,0.0,73,0.00,,---,0.00,VWS V14.01,2013-03-01 11:44:00,
2013-03-01 05:45:00,29.1,21.6,30.27,ESE,112,0.0,0.0,73,0.00,,---,0.00,VWS V14.01,2013-03-01 11:45:00,
2013-03-01 05:46:00,29.0,21.4,30.27,ESE,112,0.0,0.0,73,0.00,,---,0.00,VWS V14.01,2013-03-01 11:46:00,
2013-03-01 05:47:00,29.0,21.4,30.30,ESE,112,0.0,0.0,73,0.00,,---,0.00,VWS V14.01,2013-03-01 11:47:00,
2013-03-01 05:48:00,28.2,21.0,30.30,ESE,112,0.0,0.0,74,0.00,,---,0.00,VWS V14.01,2013-03-01 11:48:00,
2013-03-01 05:49:00,28.8,21.2,30.30,ESE,112,0.0,0.0,73,0.00,,---,0.00,VWS V14.01,2013-03-01 11:49:00,
2013-03-01 05:50:00,28.6,21.1,30.30,ESE,112,0.0,0.0,73,0.00,,---,0.00,VWS V14.01,2013-03-01 11:50:00,
2013-03-01 05:51:00,28.6,20.7,30.30,ESE,112,0.0,0.0,72,0.00,,---,0.00,VWS V14.01,2013-03-01 11:51:00,
2013-03-01 05:52:00,28.4,20.6,30.30,ESE,112,0.0,0.0,72,0.00,,---,0.00,VWS V14.01,2013-03-01 11:52:00,
2013-03-01 05:53:00,28.1,20.5,30.30,ESE,112,0.0,0.0,73,0.00,,---,0.00,VWS V14.01,2013-03-01 11:53:00,
2013-03-01 05:54:00,28.4,20.9,30.30,ESE,112,0.0,0.0,73,0.00,,---,0.00,VWS V14.01,2013-03-01 11:54:00,
2013-03-01 05:55:00,28.4,20.9,30.30,ESE,112,0.0,0.0,73,0.00,,---,0.00,VWS V14.01,2013-03-01 11:55:00,
2013-03-01 05:58:00,27.7,20.5,30.30,ESE,112,0.0,0.0,74,0.00,,---,0.00,VWS V14.01,2013-03-01 11:58:00,
2013-03-01 06:03:00,27.4,20.2,30.30,ESE,112,0.0,0.0,74,0.00,,---,0.00,VWS V14.01,2013-03-01 12:03:00,
2013-03-01 06:08:00,27.4,20.2,30.30,ESE,112,0.0,0.0,74,0.00,,---,0.00,VWS V14.01,2013-03-01 12:08:00,
2013-03-01 06:13:00,27.7,20.2,30.30,ESE,112,0.0,0.0,73,0.00,,---,0.00,VWS V14.01,2013-03-01 12:13:00,
2013-03-01 06:18:00,27.5,20.4,30.30,ESE,112,0.0,0.0,74,0.00,,---,0.00,VWS V14.01,2013-03-01 12:18:00,
2013-03-01 06:23:00,27.5,20.4,30.30,ESE,112,0.0,0.0,74,0.00,,---,0.00,VWS V14.01,2013-03-01 12:23:00,
2013-03-01 06:28:00,27.5,20.0,30.30,ESE,112,0.0,0.0,73,0.00,,---,0.00,VWS V14.01,2013-03-01 12:28:00,
2013-03-01 06:33:00,27.9,20.7,30.30,ESE,112,0.0,0.0,74,0.00,,---,0.00,VWS V14.01,2013-03-01 12:33:00,
2013-03-01 06:38:00,28.1,20.5,30.30,ESE,112,0.0,0.0,73,0.00,,---,0.00,VWS V14.01,2013-03-01 12:38:00,
2013-03-01 06:43:00,27.9,20.7,30.30,ESE,112,0.0,0.0,74,0.00,,---,0.00,VWS V14.01,2013-03-01 12:43:00,
2013-03-01 06:48:00,27.9,20.7,30.30,ESE,112,0.0,0.0,74,0.00,,---,0.00,VWS V14.01,2013-03-01 12:48:00,
2013-03-01 06:53:00,27.5,20.4,30.30,ESE,112,0.0,0.0,74,0.00,,---,0.00,VWS V14.01,2013-03-01 12:53:00,
2013-03-01 06:59:00,27.0,19.5,30.30,ESE,112,0.0,0.0,73,0.00,,---,0.00,VWS V14.01,2013-03-01 12:59:00,
2013-03-01 07:04:00,27.0,19.5,30.30,ESE,112,0.0,0.0,73,0.00,,---,0.00,VWS V14.01,2013-03-01 13:04:00,
2013-03-01 07:09:00,27.2,19.7,30.30,ESE,112,0.0,0.0,73,0.00,,---,0.00,VWS V14.01,2013-03-01 13:09:00,
2013-03-01 07:14:00,28.1,21.2,30.30,ESE,112,3.1,3.1,75,0.00,,---,0.00,VWS V14.01,2013-03-01 13:14:00,
2013-03-01 07:19:00,28.6,22.3,30.30,ESE,112,2.5,2.5,77,0.00,,---,0.00,VWS V14.01,2013-03-01 13:19:00,
2013-03-01 07:24:00,29.8,24.1,30.27,East,90,2.0,2.5,79,0.00,,---,0.00,VWS V14.01,2013-03-01 13:24:00,
2013-03-01 07:29:00,30.7,25.3,30.27,ESE,112,0.0,0.0,80,0.00,,---,0.00,VWS V14.01,2013-03-01 13:29:00,
2013-03-01 07:34:00,32.2,26.4,30.27,ESE,112,0.0,0.0,79,0.00,,---,0.00,VWS V14.01,2013-03-01 13:34:00,
2013-03-01 07:39:00,33.6,27.5,30.30,ESE,112,0.9,1.1,78,0.00,,---,1.25,VWS V14.01,2013-03-01 13:39:00,
2013-03-01 07:44:00,34.5,28.0,30.30,ESE,112,0.9,1.1,77,0.00,,---,0.00,VWS V14.01,2013-03-01 13:44:00,
2013-03-01 07:49:00,35.7,28.2,30.30,ESE,112,0.0,0.0,74,0.00,,---,0.00,VWS V14.01,2013-03-01 13:49:00,
2013-03-01 07:54:00,36.9,28.8,30.30,ESE,112,0.0,0.0,72,0.00,,---,0.00,VWS V14.01,2013-03-01 13:54:00,
2013-03-01 07:59:00,37.6,28.8,30.30,ESE,112,0.0,0.9,70,0.00,,---,0.00,VWS V14.01,2013-03-01 13:59:00,
2013-03-01 08:04:00,39.1,28.7,30.30,ESE,112,0.0,0.0,66,0.00,,---,0.00,VWS V14.01,2013-03-01 14:04:00,
2013-03-01 08:09:00,40.5,29.3,30.30,ESE,112,0.0,0.0,64,0.00,,---,0.00,VWS V14.01,2013-03-01 14:09:00,
2013-03-01 08:14:00,41.9,29.9,30.30,ESE,112,0.0,0.0,62,0.00,,---,0.00,VWS V14.01,2013-03-01 14:14:00,
2013-03-01 08:19:00,41.9,27.4,30.30,NNW,338,1.3,1.3,56,0.00,,---,0.00,VWS V14.01,2013-03-01 14:19:00,
2013-03-01 08:24:00,42.8,27.3,30.30,NNW,338,0.0,0.0,54,0.00,,---,0.00,VWS V14.01,2013-03-01 14:24:00,
2013-03-01 08:29:00,43.3,27.4,30.30,SW,225,2.2,2.2,53,0.00,,---,0.00,VWS V14.01,2013-03-01 14:29:00,
2013-03-01 08:34:00,44.2,27.7,30.33,WNW,292,2.7,2.7,52,0.00,,---,0.00,VWS V14.01,2013-03-01 14:34:00,
2013-03-01 08:39:00,44.4,26.9,30.33,SW,225,1.3,1.3,50,0.00,,---,0.00,VWS V14.01,2013-03-01 14:39:00,
2013-03-01 08:44:00,45.1,27.6,30.33,West,270,0.0,1.3,50,0.00,,---,0.00,VWS V14.01,2013-03-01 14:44:00,
2013-03-01 08:49:00,45.6,27.6,30.33,WSW,248,2.7,2.7,49,0.00,,---,0.00,VWS V14.01,2013-03-01 14:49:00,
2013-03-01 08:54:00,46.2,27.1,30.33,East,90,0.0,0.0,47,0.00,,---,0.00,VWS V14.01,2013-03-01 14:54:00,
2013-03-01 08:59:00,46.5,27.4,30.33,WSW,248,0.0,0.9,47,0.00,,---,0.00,VWS V14.01,2013-03-01 14:59:00,
2013-03-01 09:04:00,46.9,27.7,30.33,NNW,338,2.5,2.5,47,0.00,,---,0.00,VWS V14.01,2013-03-01 15:04:00,
2013-03-01 09:09:00,48.3,29.0,30.33,WSW,248,0.0,0.0,47,0.00,,---,0.00,VWS V14.01,2013-03-01 15:09:00,
2013-03-01 09:14:00,49.3,29.5,30.33,East,90,0.0,0.0,46,0.00,,---,0.00,VWS V14.01,2013-03-01 15:14:00,
2013-03-01 09:19:00,50.2,30.3,30.30,WNW,292,1.1,2.0,46,0.00,,---,0.00,VWS V14.01,2013-03-01 15:19:00,
2013-03-01 09:24:00,51.7,29.9,30.30,SW,225,0.0,0.0,43,0.00,,---,0.00,VWS V14.01,2013-03-01 15:24:00,
2013-03-01 09:29:00,52.4,30.5,30.30,West,270,2.5,2.9,43,0.00,,---,0.00,VWS V14.01,2013-03-01 15:29:00,
2013-03-01 09:34:00,53.1,31.2,30.30,South,180,0.0,1.1,43,0.00,,---,0.00,VWS V14.01,2013-03-01 15:34:00,
2013-03-01 09:39:00,54.1,31.0,30.30,SW,225,1.1,1.1,41,0.00,,---,0.00,VWS V14.01,2013-03-01 15:39:00,
2013-03-01 09:44:00,54.3,30.5,30.30,SW,225,2.9,2.9,40,0.00,,---,0.00,VWS V14.01,2013-03-01 15:44:00,
2013-03-01 09:49:00,54.7,30.8,30.30,SSE,158,2.0,2.5,40,0.00,,---,0.00,VWS V14.01,2013-03-01 15:49:00,
2013-03-01 09:54:00,56.1,31.5,30.30,ESE,112,1.1,2.2,39,0.00,,---,0.00,VWS V14.01,2013-03-01 15:54:00,
2013-03-01 09:59:00,57.3,32.0,30.30,ESE,112,0.0,0.9,38,0.00,,---,0.00,VWS V14.01,2013-03-01 15:59:00,
2013-03-01 10:04:00,58.0,31.9,30.30,ESE,112,3.6,5.6,37,0.00,,---,0.00,VWS V14.01,2013-03-01 16:04:00,
2013-03-01 10:09:00,58.6,31.7,30.30,SSE,158,2.7,2.7,36,0.00,,---,0.00,VWS V14.01,2013-03-01 16:09:00,
2013-03-01 10:14:00,58.2,31.4,30.30,ESE,112,4.0,4.0,36,0.00,,---,0.00,VWS V14.01,2013-03-01 16:14:00,
2013-03-01 10:19:00,59.1,32.2,30.27,SE,135,3.1,3.4,36,0.00,,---,0.00,VWS V14.01,2013-03-01 16:19:00,
2013-03-01 10:24:00,59.6,32.0,30.27,SE,135,1.3,4.7,35,0.00,,---,0.00,VWS V14.01,2013-03-01 16:24:00,
2013-03-01 10:29:00,60.0,32.3,30.27,East,90,4.9,4.9,35,0.00,,---,0.00,VWS V14.01,2013-03-01 16:29:00,
2013-03-01 10:34:00,60.3,32.6,30.30,South,180,4.3,4.3,35,0.00,,---,0.00,VWS V14.01,2013-03-01 16:34:00,
2013-03-01 10:39:00,60.3,32.6,30.30,ESE,112,4.0,4.0,35,0.00,,---,0.00,VWS V14.01,2013-03-01 16:39:00,
2013-03-01 10:44:00,61.4,32.8,30.30,SE,135,4.9,4.9,34,0.00,,---,0.00,VWS V14.01,2013-03-01 16:44:00,
2013-03-01 10:49:00,61.9,33.3,30.30,East,90,3.1,4.0,34,0.00,,---,0.00,VWS V14.01,2013-03-01 16:49:00,
2013-03-01 10:54:00,62.8,33.3,30.30,NE,45,3.1,4.0,33,0.00,,---,0.00,VWS V14.01,2013-03-01 16:54:00,
2013-03-01 10:59:00,63.7,34.1,30.30,SE,135,1.6,3.8,33,0.00,,---,0.00,VWS V14.01,2013-03-01 16:59:00,
2013-03-01 11:04:00,64.8,33.5,30.30,ESE,112,5.4,5.4,31,0.00,,---,0.00,VWS V14.01,2013-03-01 17:04:00,
2013-03-01 11:09:00,64.9,32.8,30.30,ENE,68,2.9,2.9,30,0.00,,---,0.00,VWS V14.01,2013-03-01 17:09:00,
2013-03-01 11:14:00,65.7,29.9,30.30,WNW,292,0.0,1.6,26,0.00,,---,0.00,VWS V14.01,2013-03-01 17:14:00,
2013-03-01 11:19:00,66.5,31.6,30.27,SW,225,2.0,2.9,27,0.00,,---,0.00,VWS V14.01,2013-03-01 17:19:00,
2013-03-01 11:25:00,67.2,32.2,30.27,ENE,68,4.7,4.7,27,0.00,,---,0.00,VWS V14.01,2013-03-01 17:25:00,
2013-03-01 11:30:00,66.0,28.2,30.27,NNW,338,1.6,3.6,24,0.00,,---,0.00,VWS V14.01,2013-03-01 17:30:00,
2013-03-01 11:35:00,66.2,27.3,30.27,West,270,2.0,2.5,23,0.00,,---,0.00,VWS V14.01,2013-03-01 17:35:00,
2013-03-01 11:40:00,65.8,26.0,30.27,NNW,338,5.4,5.4,22,0.00,,---,0.00,VWS V14.01,2013-03-01 17:40:00,
2013-03-01 11:45:00,66.0,23.8,30.27,NNE,22,4.0,5.8,20,0.00,,---,0.00,VWS V14.01,2013-03-01 17:45:00,
2013-03-01 11:50:00,65.8,19.8,30.27,NW,315,4.0,4.0,17,0.00,,---,0.00,VWS V14.01,2013-03-01 17:50:00,
2013-03-01 11:55:00,65.5,23.4,30.27,North,0,3.1,3.6,20,0.00,,---,0.00,VWS V14.01,2013-03-01 17:55:00,
2013-03-01 12:00:00,67.4,27.3,30.27,ESE,112,2.5,3.4,22,0.00,,---,0.00,VWS V14.01,2013-03-01 18:00:00,
2013-03-01 12:05:00,67.4,23.8,30.27,NNW,338,2.5,4.0,19,0.00,,---,0.00,VWS V14.01,2013-03-01 18:05:00,
2013-03-01 12:10:00,68.5,28.2,30.27,WNW,292,4.3,4.3,22,0.00,,---,0.00,VWS V14.01,2013-03-01 18:10:00,
2013-03-01 12:15:00,66.9,8.6,30.27,NE,45,2.7,4.0,10,0.00,,---,0.00,VWS V14.01,2013-03-01 18:15:00,
2013-03-01 12:20:00,66.9,0.8,30.24,West,270,3.8,6.0,7,0.00,,---,0.00,VWS V14.01,2013-03-01 18:20:00,
2013-03-01 12:25:00,66.4,-11.1,30.24,NNW,338,5.6,5.6,4,0.00,,---,0.00,VWS V14.01,2013-03-01 18:25:00,
2013-03-01 12:30:00,67.2,6.5,30.24,SE,135,2.2,2.7,9,0.00,,---,0.00,VWS V14.01,2013-03-01 18:30:00,
2013-03-01 12:35:00,68.0,7.1,30.24,SSW,202,1.3,3.1,9,0.00,,---,0.00,VWS V14.01,2013-03-01 18:35:00,
2013-03-01 12:40:00,65.8,-11.5,30.24,North,0,6.7,9.0,4,0.00,,---,0.00,VWS V14.01,2013-03-01 18:40:00,
2013-03-01 12:45:00,66.5,-11.0,30.24,NNE,22,3.6,3.6,4,0.00,,---,0.00,VWS V14.01,2013-03-01 18:45:00,
2013-03-01 12:50:00,68.1,1.7,30.24,SSE,158,3.1,3.1,7,0.00,,---,0.00,VWS V14.01,2013-03-01 18:50:00,
2013-03-01 12:55:00,68.8,-9.4,30.24,South,180,1.6,3.8,4,0.00,,---,0.00,VWS V14.01,2013-03-01 18:55:00,
2013-03-01 13:00:00,68.0,-15.8,30.24,SW,225,2.0,2.0,3,0.00,,---,0.00,VWS V14.01,2013-03-01 19:00:00,
2013-03-01 13:05:00,69.9,-8.7,30.24,SSW,202,2.5,3.8,4,0.00,,---,0.00,VWS V14.01,2013-03-01 19:05:00,
2013-03-01 13:10:00,68.7,-15.3,30.24,West,270,5.6,5.6,3,0.00,,---,0.00,VWS V14.01,2013-03-01 19:10:00,
2013-03-01 13:15:00,67.2,-16.2,30.24,South,180,3.4,3.8,3,0.00,,---,0.00,VWS V14.01,2013-03-01 19:15:00,
2013-03-01 13:20:00,67.6,-16.0,30.21,North,0,7.8,9.8,3,0.00,,---,0.00,VWS V14.01,2013-03-01 19:20:00,
2013-03-01 13:25:00,66.7,-10.9,30.21,North,0,6.5,6.5,4,0.00,,---,0.00,VWS V14.01,2013-03-01 19:25:00,
2013-03-01 13:30:00,67.1,-10.6,30.21,NNW,338,2.9,4.9,4,0.00,,---,0.00,VWS V14.01,2013-03-01 19:30:00,
2013-03-01 13:35:00,68.0,-15.8,30.21,WSW,248,4.9,5.8,3,0.00,,---,0.00,VWS V14.01,2013-03-01 19:35:00,
2013-03-01 13:40:00,67.6,-16.0,30.21,West,270,4.9,4.9,3,0.00,,---,0.00,VWS V14.01,2013-03-01 19:40:00,
2013-03-01 13:45:00,67.8,-15.9,30.21,NW,315,3.6,4.3,3,0.00,,---,0.00,VWS V14.01,2013-03-01 19:45:00,
2013-03-01 13:50:00,68.8,-15.2,30.21,West,270,2.5,2.9,3,0.00,,---,0.00,VWS V14.01,2013-03-01 19:50:00,
2013-03-01 13:55:00,67.8,-15.9,30.21,NNW,338,8.7,9.8,3,0.00,,---,0.00,VWS V14.01,2013-03-01 19:55:00,
2013-03-01 14:00:00,68.1,-15.6,30.21,NNW,338,6.0,6.3,3,0.00,,---,0.00,VWS V14.01,2013-03-01 20:00:00,
2013-03-01 14:05:00,67.6,-16.0,30.21,West,270,12.5,12.5,3,0.00,,---,0.00,VWS V14.01,2013-03-01 20:05:00,
2013-03-01 14:10:00,67.8,-15.9,30.21,WSW,248,3.1,6.5,3,0.00,,---,0.00,VWS V14.01,2013-03-01 20:10:00,
2013-03-01 14:15:00,67.6,-16.0,30.21,NW,315,7.6,10.1,3,0.00,,---,0.00,VWS V14.01,2013-03-01 20:15:00,
2013-03-01 14:20:00,66.7,-10.9,30.18,North,0,6.5,9.0,4,0.00,,---,0.00,VWS V14.01,2013-03-01 20:20:00,
2013-03-01 14:25:00,66.7,-10.9,30.18,NNW,338,7.8,9.8,4,0.00,,---,0.00,VWS V14.01,2013-03-01 20:25:00,
2013-03-01 14:30:00,67.4,-16.1,30.18,NNW,338,6.5,7.2,3,0.00,,---,0.00,VWS V14.01,2013-03-01 20:30:00,
2013-03-01 14:35:00,66.9,-10.8,30.15,North,0,4.7,9.8,4,0.00,,---,0.00,VWS V14.01,2013-03-01 20:35:00,
2013-03-01 14:40:00,67.6,-16.0,30.15,North,0,8.1,10.1,3,0.00,,---,0.00,VWS V14.01,2013-03-01 20:40:00,
2013-03-01 14:45:00,67.1,-10.6,30.15,NW,315,12.8,14.8,4,0.00,,---,0.00,VWS V14.01,2013-03-01 20:45:00,
2013-03-01 14:51:00,67.1,-10.6,30.18,West,270,9.6,9.6,4,0.00,,---,0.00,VWS V14.01,2013-03-01 20:51:00,
2013-03-01 14:56:00,68.0,-15.8,30.18,NNW,338,5.4,9.4,3,0.00,,---,0.00,VWS V14.01,2013-03-01 20:56:00,
2013-03-01 15:01:00,68.1,-15.6,30.18,West,270,0.9,5.6,3,0.00,,---,0.00,VWS V14.01,2013-03-01 21:01:00,
2013-03-01 15:06:00,67.4,-16.1,30.18,NW,315,5.6,10.5,3,0.00,,---,0.00,VWS V14.01,2013-03-01 21:06:00,
2013-03-01 15:11:00,67.2,-16.2,30.18,NNW,338,7.8,14.5,3,0.00,,---,0.00,VWS V14.01,2013-03-01 21:11:00,
2013-03-01 15:16:00,68.7,-15.3,30.18,WSW,248,2.9,4.3,3,0.00,,---,0.00,VWS V14.01,2013-03-01 21:16:00,
2013-03-01 15:21:00,69.0,-15.0,30.18,West,270,5.4,8.5,3,0.00,,---,0.00,VWS V14.01,2013-03-01 21:21:00,
2013-03-01 15:26:00,68.3,-15.5,30.18,NW,315,11.0,12.8,3,0.00,,---,0.00,VWS V14.01,2013-03-01 21:26:00,
2013-03-01 15:31:00,68.3,-15.5,30.18,NW,315,9.4,12.1,3,0.00,,---,0.00,VWS V14.01,2013-03-01 21:31:00,
2013-03-01 15:36:00,67.6,-16.0,30.15,NNW,338,10.3,11.0,3,0.00,,---,0.00,VWS V14.01,2013-03-01 21:36:00,
2013-03-01 15:41:00,68.3,-15.5,30.15,NW,315,3.8,8.1,3,0.00,,---,0.00,VWS V14.01,2013-03-01 21:41:00,
2013-03-01 15:46:00,68.1,-15.6,30.15,NNE,22,6.3,6.3,3,0.00,,---,0.00,VWS V14.01,2013-03-01 21:46:00,
2013-03-01 15:51:00,68.0,-15.8,30.15,NW,315,3.8,6.5,3,0.00,,---,0.00,VWS V14.01,2013-03-01 21:51:00,
2013-03-01 15:57:00,68.8,-15.2,30.15,NNW,338,5.8,6.5,3,0.00,,---,0.00,VWS V14.01,2013-03-01 21:57:00,
2013-03-01 16:01:00,68.1,-15.6,30.15,West,270,10.1,10.1,3,0.00,,---,0.00,VWS V14.01,2013-03-01 22:01:00,
2013-03-01 16:06:00,68.1,-15.6,30.15,WNW,292,9.8,9.8,3,0.00,,---,0.00,VWS V14.01,2013-03-01 22:06:00,
2013-03-01 16:12:00,67.6,-16.0,30.15,NW,315,10.3,10.3,3,0.00,,---,0.00,VWS V14.01,2013-03-01 22:12:00,
2013-03-01 16:17:00,65.8,-11.5,30.15,WNW,292,4.0,8.1,4,0.00,,---,0.00,VWS V14.01,2013-03-01 22:17:00,
2013-03-01 16:22:00,64.8,-12.3,30.15,NW,315,8.5,8.5,4,0.00,,---,0.00,VWS V14.01,2013-03-01 22:22:00,
2013-03-01 16:27:00,63.9,-12.9,30.15,West,270,8.7,8.7,4,0.00,,---,0.00,VWS V14.01,2013-03-01 22:27:00,
2013-03-01 16:32:00,63.9,-12.9,30.15,NW,315,5.6,5.6,4,0.00,,---,0.00,VWS V14.01,2013-03-01 22:32:00,
2013-03-01 16:37:00,63.7,-13.0,30.15,North,0,6.5,6.5,4,0.00,,---,0.00,VWS V14.01,2013-03-01 22:37:00,
2013-03-01 16:42:00,64.4,-12.5,30.15,NW,315,15.4,15.4,4,0.00,,---,0.00,VWS V14.01,2013-03-01 22:42:00,
2013-03-01 16:47:00,65.1,-12.0,30.15,WNW,292,10.5,12.5,4,0.00,,---,0.00,VWS V14.01,2013-03-01 22:47:00,
2013-03-01 16:52:00,66.2,-11.3,30.15,NW,315,4.9,10.7,4,0.00,,---,0.00,VWS V14.01,2013-03-01 22:52:00,
2013-03-01 16:57:00,66.5,-11.0,30.15,NNW,338,13.2,13.2,4,0.00,,---,0.00,VWS V14.01,2013-03-01 22:57:00,
2013-03-01 17:02:00,66.2,-11.3,30.15,WNW,292,15.2,15.2,4,0.00,,---,0.00,VWS V14.01,2013-03-01 23:02:00,
2013-03-01 17:07:00,66.2,-11.3,30.18,NW,315,5.8,14.8,4,0.00,,---,0.00,VWS V14.01,2013-03-01 23:07:00,
2013-03-01 17:12:00,64.8,-12.3,30.18,NW,315,10.1,10.1,4,0.00,,---,0.00,VWS V14.01,2013-03-01 23:12:00,
2013-03-01 17:17:00,64.9,-12.1,30.18,NW,315,10.1,10.1,4,0.00,,---,0.00,VWS V14.01,2013-03-01 23:17:00,
2013-03-01 17:22:00,64.8,-12.3,30.18,NW,315,10.1,10.1,4,0.00,,---,0.00,VWS V14.01,2013-03-01 23:22:00,
2013-03-01 17:27:00,64.6,-12.4,30.18,NW,315,10.1,10.1,4,0.00,,---,0.00,VWS V14.01,2013-03-01 23:27:00,
2013-03-01 17:32:00,63.7,-13.0,30.18,NW,315,10.1,10.1,4,0.00,,---,0.00,VWS V14.01,2013-03-01 23:32:00,
2013-03-01 17:37:00,63.3,-13.2,30.18,NW,315,10.1,10.1,4,0.00,,---,0.00,VWS V14.01,2013-03-01 23:37:00,
2013-03-01 17:42:00,62.6,-13.7,30.18,NW,315,10.1,10.1,4,0.00,,---,0.00,VWS V14.01,2013-03-01 23:42:00,
2013-03-01 17:47:00,62.6,-13.7,30.18,NW,315,10.1,10.1,4,0.00,,---,0.00,VWS V14.01,2013-03-01 23:47:00,
2013-03-01 17:52:00,62.8,-13.6,30.18,NW,315,10.1,10.1,4,0.00,,---,0.00,VWS V14.01,2013-03-01 23:52:00,
2013-03-01 17:57:00,62.5,-13.9,30.18,NW,315,10.1,10.1,4,0.00,,---,0.00,VWS V14.01,2013-03-01 23:57:00,
2013-03-01 18:02:00,62.1,-14.1,30.18,NW,315,10.1,10.1,4,0.00,,---,0.00,VWS V14.01,2013-03-02 00:02:00,
2013-03-01 18:07:00,61.8,-9.9,30.18,NW,315,10.1,10.1,5,0.00,,---,0.00,VWS V14.01,2013-03-02 00:07:00,
2013-03-01 18:12:00,61.2,-10.3,30.18,NW,315,10.1,10.1,5,0.00,,---,0.00,VWS V14.01,2013-03-02 00:12:00,
2013-03-01 18:17:00,60.9,-10.5,30.18,NW,315,10.1,10.1,5,0.00,,---,0.00,VWS V14.01,2013-03-02 00:17:00,
2013-03-01 18:22:00,60.7,-10.7,30.18,NW,315,8.7,8.7,5,0.00,,---,0.00,VWS V14.01,2013-03-02 00:22:00,
2013-03-01 18:27:00,60.3,-10.9,30.18,NNW,338,5.8,5.8,5,0.00,,---,0.00,VWS V14.01,2013-03-02 00:27:00,
2013-03-01 18:32:00,60.2,-11.0,30.18,NW,315,7.6,7.6,5,0.00,,---,0.00,VWS V14.01,2013-03-02 00:32:00,
2013-03-01 18:37:00,59.8,-11.3,30.18,NNW,338,10.3,10.3,5,0.00,,---,0.00,VWS V14.01,2013-03-02 00:37:00,
2013-03-01 18:42:00,59.5,-11.6,30.18,NNW,338,6.3,8.1,5,0.00,,---,0.00,VWS V14.01,2013-03-02 00:42:00,
2013-03-01 18:47:00,59.1,-11.8,30.18,NW,315,9.8,9.8,5,0.00,,---,0.00,VWS V14.01,2013-03-02 00:47:00,
2013-03-01 18:52:00,58.9,-11.9,30.21,NNW,338,3.4,3.4,5,0.00,,---,0.00,VWS V14.01,2013-03-02 00:52:00,
2013-03-01 18:57:00,59.1,-11.8,30.21,NNW,338,3.4,3.4,5,0.00,,---,0.00,VWS V14.01,2013-03-02 00:57:00,
2013-03-01 19:02:00,58.7,-12.1,30.21,NNW,338,3.4,3.4,5,0.00,,---,0.00,VWS V14.01,2013-03-02 01:02:00,
2013-03-01 19:07:00,58.2,-8.8,30.21,NNW,338,3.4,3.4,6,0.00,,---,0.00,VWS V14.01,2013-03-02 01:07:00,
2013-03-01 19:12:00,57.9,-9.0,30.21,NNW,338,3.4,3.4,6,0.00,,---,0.00,VWS V14.01,2013-03-02 01:12:00,
2013-03-01 19:17:00,57.3,-9.4,30.21,NNW,338,3.4,3.4,6,0.00,,---,0.00,VWS V14.01,2013-03-02 01:17:00,
2013-03-01 19:22:00,56.6,-9.9,30.21,NNW,338,3.4,3.4,6,0.00,,---,0.00,VWS V14.01,2013-03-02 01:22:00,
2013-03-01 19:27:00,55.9,-10.4,30.21,NNW,338,3.4,3.4,6,0.00,,---,0.00,VWS V14.01,2013-03-02 01:27:00,
2013-03-01 19:32:00,55.0,-11.1,30.21,NNW,338,3.4,3.4,6,0.00,,---,0.00,VWS V14.01,2013-03-02 01:32:00,
2013-03-01 19:37:00,54.5,-11.5,30.21,NNW,338,3.4,3.4,6,0.00,,---,0.00,VWS V14.01,2013-03-02 01:37:00,
2013-03-01 19:42:00,54.0,-11.9,30.21,NNW,338,3.4,3.4,6,0.00,,---,0.00,VWS V14.01,2013-03-02 01:42:00,
2013-03-01 19:47:00,53.4,-12.3,30.21,NNW,338,3.4,3.4,6,0.00,,---,0.00,VWS V14.01,2013-03-02 01:47:00,
2013-03-01 19:52:00,52.5,-9.8,30.21,NNW,338,3.4,3.4,7,0.00,,---,0.00,VWS V14.01,2013-03-02 01:52:00,
2013-03-01 19:57:00,52.0,-10.2,30.21,NNW,338,3.4,3.4,7,0.00,,---,0.00,VWS V14.01,2013-03-02 01:57:00,
2013-03-01 20:02:00,51.3,-10.7,30.21,NNW,338,3.4,3.4,7,0.00,,---,0.00,VWS V14.01,2013-03-02 02:02:00,
2013-03-01 20:07:00,50.0,-11.7,30.21,NNW,338,3.4,3.4,7,0.00,,---,0.00,VWS V14.01,2013-03-02 02:07:00,
2013-03-01 20:12:00,50.2,-11.5,30.21,NNW,338,3.4,3.4,7,0.00,,---,0.00,VWS V14.01,2013-03-02 02:12:00,
2013-03-01 20:17:00,50.6,-11.3,30.21,NNW,338,3.4,3.4,7,0.00,,---,0.00,VWS V14.01,2013-03-02 02:17:00,
2013-03-01 20:23:00,50.9,-11.0,30.24,NNW,338,3.4,3.4,7,0.00,,---,0.00,VWS V14.01,2013-03-02 02:23:00,
2013-03-01 20:28:00,51.5,2.3,30.24,NNW,338,3.4,3.4,13,0.00,,---,0.00,VWS V14.01,2013-03-02 02:28:00,
2013-03-01 20:33:00,52.0,5.8,30.24,NNW,338,3.4,3.4,15,0.00,,---,0.00,VWS V14.01,2013-03-02 02:33:00,
2013-03-01 20:38:00,52.2,10.0,30.24,NNW,338,3.4,3.4,18,0.00,,---,0.00,VWS V14.01,2013-03-02 02:38:00,
2013-03-01 20:43:00,52.4,10.1,30.24,NNW,338,3.4,3.4,18,0.00,,---,0.00,VWS V14.01,2013-03-02 02:43:00,
2013-03-01 20:48:00,52.4,12.5,30.24,NNW,338,3.4,3.4,20,0.00,,---,0.00,VWS V14.01,2013-03-02 02:48:00,
2013-03-01 20:53:00,52.7,16.0,30.24,NNW,338,3.4,3.4,23,0.00,,---,0.00,VWS V14.01,2013-03-02 02:53:00,
2013-03-01 20:57:00,52.5,17.8,30.24,NNW,338,3.4,3.4,25,0.00,,---,0.00,VWS V14.01,2013-03-02 02:57:00,
2013-03-01 21:03:00,52.4,18.5,30.24,NNW,338,3.4,3.4,26,0.00,,---,0.00,VWS V14.01,2013-03-02 03:03:00,
2013-03-01 21:08:00,52.2,18.4,30.30,North,0,5.6,10.3,26,0.00,,---,0.00,VWS V14.01,2013-03-02 03:08:00,
2013-03-01 21:13:00,52.0,19.1,30.30,NW,315,12.5,12.5,27,0.00,,---,0.00,VWS V14.01,2013-03-02 03:13:00,
2013-03-01 21:18:00,52.0,19.1,30.30,North,0,10.5,12.5,27,0.00,,---,0.00,VWS V14.01,2013-03-02 03:18:00,
2013-03-01 21:23:00,51.8,19.8,30.30,NNW,338,8.5,11.0,28,0.00,,---,0.00,VWS V14.01,2013-03-02 03:23:00,
2013-03-01 21:28:00,51.7,20.4,30.30,NNW,338,8.5,12.8,29,0.00,,---,0.00,VWS V14.01,2013-03-02 03:28:00,
2013-03-01 21:33:00,51.7,20.4,30.30,NNW,338,8.5,8.5,29,0.00,,---,0.00,VWS V14.01,2013-03-02 03:33:00,
2013-03-01 21:38:00,51.1,21.5,30.30,NNW,338,8.5,8.5,31,0.00,,---,0.00,VWS V14.01,2013-03-02 03:38:00,
2013-03-01 21:43:00,50.8,22.0,30.30,NNW,338,8.5,8.5,32,0.00,,---,0.00,VWS V14.01,2013-03-02 03:43:00,
2013-03-01 21:48:00,50.4,22.4,30.30,NNW,338,8.5,8.5,33,0.00,,---,0.00,VWS V14.01,2013-03-02 03:48:00,
2013-03-01 21:53:00,50.2,23.0,30.30,North,0,3.4,8.1,34,0.00,,---,0.00,VWS V14.01,2013-03-02 03:53:00,
2013-03-01 21:58:00,49.9,23.3,30.30,North,0,5.6,11.0,35,0.00,,---,0.00,VWS V14.01,2013-03-02 03:58:00,
2013-03-01 22:03:00,49.5,23.7,30.30,North,0,6.3,8.5,36,0.00,,---,0.00,VWS V14.01,2013-03-02 04:03:00,
2013-03-01 22:08:00,49.3,23.5,30.30,NNW,338,5.8,6.9,36,0.00,,---,0.00,VWS V14.01,2013-03-02 04:08:00,
2013-03-01 22:13:00,49.0,23.2,30.30,NNW,338,7.4,8.1,36,0.00,,---,0.00,VWS V14.01,2013-03-02 04:13:00,
2013-03-01 22:18:00,48.8,23.7,30.30,NNW,338,5.6,5.6,37,0.00,,---,0.00,VWS V14.01,2013-03-02 04:18:00,
2013-03-01 22:23:00,48.6,23.6,30.30,North,0,6.3,6.3,37,0.00,,---,0.00,VWS V14.01,2013-03-02 04:23:00,
2013-03-01 22:28:00,48.5,23.4,30.30,NW,315,6.5,7.8,37,0.00,,---,0.00,VWS V14.01,2013-03-02 04:28:00,
2013-03-01 22:33:00,48.3,23.2,30.30,NW,315,4.9,4.9,37,0.00,,---,0.00,VWS V14.01,2013-03-02 04:33:00,
2013-03-01 22:38:00,48.1,23.1,30.30,NNW,338,7.4,7.4,37,0.00,,---,0.00,VWS V14.01,2013-03-02 04:38:00,
2013-03-01 22:43:00,47.9,22.9,30.30,NNW,338,3.4,6.0,37,0.00,,---,0.00,VWS V14.01,2013-03-02 04:43:00,
2013-03-01 22:48:00,47.6,23.2,30.30,NNW,338,3.4,4.0,38,0.00,,---,0.00,VWS V14.01,2013-03-02 04:48:00,
2013-03-01 22:53:00,47.0,22.8,30.30,WNW,292,2.7,2.7,38,0.00,,---,0.00,VWS V14.01,2013-03-02 04:53:00,
2013-03-01 22:58:00,46.7,22.5,30.30,NNW,338,4.7,4.7,38,0.00,,---,0.00,VWS V14.01,2013-03-02 04:58:00,
2013-03-01 23:00:00,46.7,22.5,30.30,North,0,3.4,5.8,38,0.00,,---,0.00,VWS V14.01,2013-03-02 05:00:00,
2013-03-01 23:01:00,46.7,22.5,30.30,NNW,338,3.1,4.3,38,0.00,,---,0.00,VWS V14.01,2013-03-02 05:01:00,
2013-03-01 23:06:00,46.5,22.3,30.30,North,0,4.0,6.5,38,0.00,,---,0.00,VWS V14.01,2013-03-02 05:06:00,
2013-03-01 23:10:00,46.2,22.0,30.30,North,0,1.6,2.9,38,0.00,,---,0.00,VWS V14.01,2013-03-02 05:10:00,
2013-03-01 23:15:00,46.2,22.6,30.30,NNW,338,4.7,7.2,39,0.00,,---,0.00,VWS V14.01,2013-03-02 05:15:00,
2013-03-01 23:20:00,46.2,22.6,30.30,North,0,3.4,6.5,39,0.00,,---,0.00,VWS V14.01,2013-03-02 05:20:00,
2013-03-01 23:25:00,45.8,22.3,30.30,NNW,338,3.6,3.6,39,0.00,,---,0.00,VWS V14.01,2013-03-02 05:25:00,
2013-03-01 23:31:00,45.3,21.8,30.30,North,0,2.7,2.7,39,0.00,,---,0.00,VWS V14.01,2013-03-02 05:31:00,
2013-03-01 23:35:00,44.6,21.1,30.30,ESE,112,0.9,1.6,39,0.00,,---,0.00,VWS V14.01,2013-03-02 05:35:00,
2013-03-01 23:40:00,44.7,21.9,30.30,NW,315,1.6,3.1,40,0.00,,---,0.00,VWS V14.01,2013-03-02 05:40:00,
2013-03-01 23:46:00,44.0,21.3,30.30,NW,315,0.0,0.0,40,0.00,,---,0.00,VWS V14.01,2013-03-02 05:46:00,
2013-03-01 23:51:00,43.5,20.2,30.33,SW,225,0.0,0.0,39,0.00,,---,0.00,VWS V14.01,2013-03-02 05:51:00,
2013-03-01 23:56:00,43.0,20.3,30.33,SW,225,0.0,0.0,40,0.00,,---,0.00,VWS V14.01,2013-03-02 05:56:00,